Location: Powder Track
(41.8531°N, 72.3584°W)
Time: 09:26:04
(UTC+00:00)

Transit 4A - Pass Details

Date: 05 August 2021
Orbit: 871 x 974 km, 66.8° (Epoch: 20 September)

Event Time Altitude Azimuth Distance (km) Brightness Sun altitude
Rises 02:30:22 0° 173° (S) 3,496 - -22.3°
Reaches altitude 10° 02:33:18 10° 160° (SSE) 2,546 - -22.7°
Maximum altitude 02:37:57 25° 107° (ESE) 1,706 - -23.2°
Exits shadow 02:39:59 20° 78° (ENE) 1,893 9.3 -23.4°
Drops below altitude 10° 02:42:34 10° 55° (NE) 2,527 10.2 -23.7°
Sets 02:45:26 0° 42° (NE) 3,465 11.1 -24.0°
